RH
26 24 28 24 23 48 40 32 26 20 18 20 15 16 15 16 18 18 26 31 36 38 36 37 41 42 42 41 37 34 35 34 32 30 28 27 29 32 34 35 35 36 42 43
29 34 25 25 32 33 33 33 28 26 24 26 28 41 32 32 37 43 34 31 33 38 38 40 44 41 44 40 36 36 32 31 28 27 28 26 28 31 31 34 36 38 40 47
34 29 22 23 24 29 40 46 33 37 33 39 40 38 45 45 53 48 45 46 36 37 41 40 64 46 48 44 44 36 36 34 32 32 32 33 34 33 29 28 29 37 40 49
28 21 24 26 29 29 38 32 41 41 47 60 60 60 41 49 53 60 54 58 56 44 39 39 60 86 77 72 46 44 44 38 32 32 27 25 22 23 27 30 29 32 38 45
44 32 30 34 40 37 40 34 42 53 54 57 50 63 58 42 56 70 74 67 70 64 52 43 51 86 82 98 88 68 57 47 44 39 29 28 28 28 29 28 28 31 34 39
37 34 43 43 35 38 41 43 50 57 74 91 54 62 78 73 89 73 72 71 70 71 62 49 47 65 91 93 98 75 91 67 69 54 40 31 29 27 26 26 26 28 30 33
52 54 46 52 41 38 44 62 91 92 95 76 68 73 92 85 76 77 82 79 80 77 72 60 52 64 83 86 90 97 86 81 82 76 48 44 31 28 27 28 26 27 28 30
76 85 74 74 73 70 61 75 81 75 76 64 67 84 82 87 67 64 70 73 73 80 74 68 60 63 77 86 85 87 86 82 77 77 74 50 39 33 32 30 30 28 29 31
77 81 64 60 61 69 75 84 85 84 82 69 77 80 72 75 69 71 76 70 80 81 82 72 68 68 78 79 83 83 82 80 81 76 78 70 46 40 34 32 31 31 33 30
81 73 66 55 64 77 87 84 91 91 84 79 85 81 82 84 83 78 80 84 85 76 83 79 73 75 76 81 82 81 81 80 79 80 81 78 71 46 39 34 33 34 35 39
66 85 69 59 83 88 79 83 82 92 82 81 75 89 89 90 89 88 86 78 84 85 80 87 84 81 81 78 82 83 83 83 84 84 83 81 74 65 47 42 37 37 41 44
63 82 67 85 77 81 86 84 82 85 91 82 84 88 90 90 92 90 91 91 81 82 83 82 87 90 85 81 78 85 86 87 86 85 84 83 78 74 63 54 46 45 48 47
64 73 63 83 90 78 77 82 88 86 85 81 88 91 88 89 89 84 84 90 86 90 75 77 83 82 86 87 88 89 95 95 93 88 88 85 81 81 78 69 58 57 56 55
73 76 72 66 82 74 84 76 84 90 82 89 90 90 88 89 87 69 72 75 92 96 92 85 83 86 81 86 88 87 86 90 88 91 89 87 82 81 80 75 66 69 65 66
64 83 66 73 66 66 69 64 76 84 89 87 89 86 89 86 83 78 67 63 76 67 67 80 90 80 83 82 87 85 86 84 88 90 89 87 80 80 80 78 75 74 69 71
57 75 67 79 58 50 56 51 45 62 71 84 82 84 72 70 62 66 64 60 68 63 61 58 59 63 68 82 77 85 85 84 85 91 90 86 84 82 82 78 80 78 72 77
72 73 70 68 62 67 67 59 57 61 61 77 74 82 66 64 68 72 70 75 75 64 58 57 57 57 58 60 71 78 83 83 88 90 90 87 84 80 82 80 82 81 78 76
53 79 74 64 60 74 67 52 59 58 62 66 77 70 62 63 69 71 67 71 75 69 54 53 57 53 49 49 51 63 71 76 87 88 89 89 88 83 80 81 84 79 78 80
53 73 81 69 49 63 63 51 51 62 52 58 64 51 51 58 62 50 40 50 52 50 52 53 56 54 49 50 48 53 60 65 74 83 86 87 89 84 82 84 84 78 80 85
49 64 57 70 56 49 48 39 48 54 53 50 55 59 69 69 76 43 42 47 46 46 46 49 51 52 49 48 47 56 60 61 64 68 72 78 85 84 81 80 83 78 79 84
47 58 58 58 61 43 38 44 52 59 56 55 58 66 79 82 59 49 46 48 46 47 60 60 60 53 48 49 48 62 64 65 61 59 58 62 71 81 80 79 79 82 83 83
59 66 54 65 68 56 43 63 70 61 62 64 69 68 73 61 54 52 50 50 51 54 52 50 53 52 49 50 53 63 67 60 60 63 61 59 59 63 66 81 82 80 83 87
79 67 60 60 38 47 51 70 71 83 90 79 87 71 73 76 65 59 58 61 60 58 55 52 56 58 51 50 54 66 59 57 64 67 64 58 52 50 48 68 77 70 83 73
66 72 71 72 69 70 67 74 71 88 90 88 83 88 82 89 75 73 70 75 72 66 67 61 64 63 60 52 60 59 55 58 68 74 68 58 52 46 40 44 50 50 62 68
67 78 77 79 76 78 74 77 89 92 84 86 87 90 94 94 91 89 88 85 84 84 78 78 80 77 72 63 60 57 58 61 72 72 71 64 54 49 38 38 38 44 59 57
84 81 79 66 80 90 86 91 91 89 91 93 98 94 89 94 95 91 91 91 92 92 88 88 83 82 77 74 71 65 64 66 74 76 71 70 54 44 40 40 40 52 49 56
Wind_Speed
1 6 7 1 2 1 3 2 4 1 2 3 10 13 10 7 6 7 6 9 10 12 12 12 12 12 11 10 9 9 9 8 5 5 5 3 3 4 4 5 6 6 5 5
4 4 3 4 4 4 4 4 8 3 1 3 3 10 12 7 4 5 6 7 9 10 12 13 14 13 12 11 10 8 7 6 4 4 4 3 4 3 4 3 5 6 6 5
3 4 1 1 3 4 3 4 4 3 2 1 6 9 4 5 11 10 7 5 4 10 12 15 13 15 13 13 11 9 8 7 5 6 5 5 5 4 3 2 3 4 5 5
4 2 1 1 1 3 5 1 1 1 4 4 2 3 4 4 4 14 11 11 9 6 9 13 14 10 12 10 11 9 8 8 6 5 4 4 3 4 3 2 3 3 4 5
4 3 2 2 3 3 3 2 3 2 2 3 6 5 7 3 6 17 15 14 11 9 8 12 15 12 10 8 8 8 8 6 6 5 4 3 5 4 4 3 4 3 3 4
5 3 4 3 2 3 6 3 3 3 1 6 4 5 5 7 12 15 16 15 13 11 9 12 14 13 9 8 6 8 6 6 5 4 4 4 5 4 3 3 2 2 2 2
4 4 2 4 2 3 2 3 3 4 5 1 2 5 7 6 10 11 14 16 14 10 7 10 14 14 13 12 10 7 8 8 6 5 4 4 4 3 3 2 2 1 1 1
4 5 5 7 4 3 2 3 4 5 3 4 3 5 6 6 5 10 11 11 12 10 5 5 10 11 12 11 11 9 8 7 6 5 5 4 3 2 2 2 1 0 1 2
6 4 2 3 3 4 3 2 2 1 1 3 4 5 5 9 12 15 16 16 16 13 7 2 6 9 10 10 10 9 8 6 6 6 5 4 4 4 3 3 1 1 1 1
2 4 1 3 2 6 4 3 3 3 4 6 4 3 5 12 13 14 17 17 15 13 10 5 3 6 8 7 6 5 6 7 6 7 6 5 5 4 3 3 3 2 1 2
2 2 4 3 6 4 1 1 1 4 3 4 1 5 6 8 9 12 13 14 14 12 9 7 4 4 6 7 6 6 6 6 6 6 6 6 5 5 4 4 3 3 2 3
3 3 3 4 2 3 3 4 3 4 4 0 4 5 5 7 8 11 13 13 14 13 10 6 5 5 4 5 6 6 6 7 6 6 7 6 5 5 5 4 4 3 3 3
4 1 2 4 4 4 3 6 3 2 2 3 4 6 3 7 10 12 13 13 12 11 12 11 9 7 5 3 1 3 5 6 6 7 7 7 7 7 6 5 4 4 3 3
1 3 4 3 4 2 3 8 5 3 2 3 3 6 5 8 10 12 15 13 10 6 10 11 10 9 7 6 4 3 5 6 6 7 8 8 9 9 8 6 5 4 4 4
4 3 4 1 7 9 7 6 7 4 2 3 3 3 5 8 8 9 10 10 8 10 11 10 10 11 8 7 6 6 5 3 5 7 9 10 9 8 6 6 5 5 5 4
4 3 2 8 6 7 8 7 4 4 3 1 1 4 3 5 6 9 11 10 7 7 9 9 9 9 9 8 9 7 6 5 5 8 10 9 9 8 8 7 6 6 6 5
4 1 2 4 2 6 5 3 4 3 2 3 3 3 6 9 11 11 15 10 8 6 11 12 11 10 9 10 9 9 8 5 5 7 7 8 8 10 9 8 7 7 6 5
2 2 1 2 4 5 5 2 4 7 9 5 6 6 6 9 11 12 13 7 5 9 16 14 11 11 11 11 11 10 9 8 6 6 7 8 9 9 8 8 8 7 5 6
2 1 2 2 2 3 4 5 3 3 2 6 7 6 9 12 13 13 3 4 13 18 17 15 12 12 12 12 12 12 11 10 8 8 9 9 9 9 9 9 9 7 7 6
3 3 2 2 3 4 5 5 3 3 4 7 7 9 13 13 14 11 14 17 18 16 17 16 14 13 12 12 12 12 12 11 11 10 10 9 10 10 11 11 9 8 7 7
2 0 2 3 4 4 5 7 5 4 4 1 5 10 11 13 12 18 17 15 15 16 17 14 13 13 13 12 12 13 13 12 12 12 10 9 10 12 11 10 9 8 8 6
4 4 3 2 3 4 10 7 6 4 1 5 8 10 12 14 15 15 15 16 16 16 16 16 14 14 14 14 13 13 13 13 12 12 11 10 11 10 9 10 9 8 8 7
4 3 1 6 1 3 9 2 2 2 2 6 5 9 11 13 15 15 14 16 15 16 14 14 14 14 14 14 13 14 14 13 12 11 12 11 11 11 11 12 11 8 8 7
5 3 3 2 2 3 5 1 0 2 4 3 5 6 9 11 13 15 14 14 14 14 14 14 14 15 15 13 12 14 14 14 13 12 11 10 11 11 12 10 10 9 8 8
2 4 2 6 6 3 3 2 2 1 3 3 5 4 8 8 11 12 12 14 12 13 12 13 13 13 15 13 15 13 13 13 13 12 10 9 9 12 11 10 10 10 8 9
6 5 4 2 2 1 1 2 3 2 3 4 3 6 8 5 8 11 11 11 11 12 12 12 13 14 14 15 15 14 12 12 12 12 9 9 9 9 9 9 8 13 11 15
Wind_Direction
112 218 217 208 220 102 119 172 241 136 92 255 238 268 273 266 244 243 224 217 205 201 184 176 168 163 158 157 153 152 146 142 145 141 132 124 100 102 84 74 54 36 47 42
192 236 83 105 134 169 196 226 233 132 116 272 274 274 277 318 336 338 295 238 224 201 181 179 173 170 173 165 164 157 147 153 152 146 121 108 119 87 79 81 63 43 36 36
277 65 84 198 165 197 194 237 209 294 175 210 288 252 186 75 61 51 38 6 264 223 201 185 176 178 175 176 171 164 146 140 129 121 125 117 119 127 143 95 69 48 45 51
59 43 219 172 113 313 227 111 169 216 234 245 296 227 116 45 104 36 9 360 349 297 223 199 180 187 176 174 160 157 150 139 129 144 146 168 140 140 104 101 80 73 37 51
77 30 30 121 28 325 53 102 94 77 159 284 183 239 87 28 347 352 350 342 333 313 269 211 192 186 173 149 159 149 145 134 126 114 112 117 106 108 118 126 127 96 85 56
75 58 32 26 34 38 134 124 96 120 184 230 123 255 82 17 333 331 342 341 336 321 286 231 199 173 154 149 143 150 141 130 116 102 96 101 107 111 128 111 109 73 48 50
124 51 40 3 197 127 228 203 190 198 195 293 60 217 55 357 359 343 336 337 337 336 304 219 193 179 163 167 162 150 155 148 141 132 115 87 94 96 93 89 59 26 98 52
351 155 6 353 12 10 76 298 304 263 216 95 144 204 95 352 358 9 4 0 3 7 10 191 189 183 178 164 165 164 163 151 157 151 139 142 138 117 99 89 78 354 352 5
345 117 128 1 354 319 122 213 21 76 86 258 103 108 172 21 16 15 12 11 6 9 11 134 175 180 167 169 172 171 169 161 175 176 170 172 169 169 159 168 199 229 274 329
41 293 44 124 228 59 339 89 218 181 245 229 108 120 34 2 357 358 6 5 5 5 18 34 134 163 160 156 160 173 184 188 187 189 190 186 188 187 189 202 221 237 269 291
278 271 126 213 26 10 92 143 31 304 280 302 252 103 360 350 353 352 355 355 357 7 8 22 66 131 148 155 169 189 201 208 206 200 197 198 195 198 200 216 219 237 271 296
12 334 281 41 72 307 328 21 324 277 108 350 310 105 6 356 359 360 356 353 351 2 23 29 46 77 123 159 177 199 212 222 223 209 208 209 204 203 215 221 218 231 248 269
351 75 237 146 176 178 63 24 318 278 245 286 301 116 39 22 17 7 5 355 343 353 19 36 47 44 48 48 8 269 243 236 227 211 209 208 206 207 218 222 220 229 251 270
355 54 360 348 35 349 65 20 359 314 264 8 36 133 39 21 11 3 359 354 345 35 30 22 25 31 34 39 352 298 272 237 231 213 212 213 209 208 212 211 215 223 238 257
38 78 14 51 86 99 100 61 52 72 7 299 50 96 29 8 350 340 336 343 359 17 13 4 355 350 347 341 333 335 320 290 235 218 216 219 214 206 204 203 206 217 231 238
355 112 141 88 109 99 84 56 73 98 28 154 271 188 19 326 332 340 333 327 308 353 359 352 340 331 330 326 321 313 302 289 249 233 226 214 201 196 202 203 204 216 225 221
12 39 233 151 244 269 225 46 45 311 275 267 297 62 321 331 336 330 314 314 285 310 338 335 328 320 312 316 312 300 294 289 250 243 235 213 201 200 200 197 195 212 218 209
350 110 349 134 188 226 94 198 285 289 294 210 218 247 293 315 318 307 293 282 281 306 318 316 308 310 309 309 305 300 291 281 254 247 230 215 204 202 194 191 202 208 210 214
350 164 107 261 243 348 223 228 229 248 253 215 234 266 309 322 315 306 290 334 323 317 306 298 293 298 302 301 307 301 293 279 258 247 239 221 203 199 190 194 199 200 203 204
114 82 262 154 256 252 122 163 142 184 233 190 233 294 314 322 307 311 334 318 307 306 304 295 290 298 296 298 306 297 292 285 272 251 245 225 204 200 199 197 190 191 200 204
196 116 241 191 260 275 222 132 143 254 29 106 307 306 304 297 297 311 311 306 309 309 323 311 300 298 298 300 301 289 289 282 279 272 256 225 214 209 202 191 187 187 191 199
208 181 182 138 236 261 140 117 212 31 20 323 305 305 304 302 302 302 307 309 313 310 314 308 299 296 297 300 296 289 287 289 286 275 257 235 215 210 197 187 184 190 190 197
242 239 254 220 255 48 178 82 82 113 295 319 305 306 307 299 302 308 308 309 308 309 312 308 303 299 298 293 292 290 295 293 291 277 259 242 221 208 198 189 182 184 190 203
212 178 256 283 102 229 243 85 65 197 318 342 309 297 300 303 308 308 308 309 307 308 309 306 311 302 295 293 294 294 294 291 284 274 259 242 222 208 199 195 186 191 190 198
17 163 211 258 269 253 176 173 87 351 321 304 306 286 290 301 298 301 304 306 306 305 305 306 304 301 297 303 299 292 292 288 280 270 255 235 225 212 198 199 190 194 195 198
185 196 200 281 78 10 317 126 142 315 287 295 281 297 292 271 280 304 301 298 297 296 309 306 302 302 302 302 297 295 291 282 276 266 247 228 217 211 195 193 186 198 193 198